User: anonymous   Login
Location: Bush Observatory
(40.2653°N, 94.3194°W)
Time: 08:39:33
(UTC-05:00)
Language:

Cosmos 1933 Rocket - Orbit

View from above orbital plane
View from above orbital plane
View from above satellite
View from above satellite

Ground track
Ground track

The orbit data is extracted from the following two-line orbital elements,

1 18959U 88020B   17234.94259541 +.00000072 +00000-0 +59252-5 0  9993
2 18959 082.5371 208.4345 0015285 277.9589 081.9891 14.83346026569399
Epoch (UTC): 22 August 2017 22:37:20
Eccentricity: 0.0015285
inclination: 82.5371°
perigee height: 608 km
apogee height: 629 km
right ascension of ascending node: 208.4345°
argument of perigee: 277.9589°
revolutions per day: 14.83346026
mean anomaly at epoch: 81.9891°
orbit number at epoch: 56939

The dashed part of the orbit path shows where the satellite is in the earth's shadow,  

DLR